Location: Newark
(3.0500°N, 36.0167°E)
Time: 14:59:29
(UTC+00:00)

Transit 2A Rocket - Pass Details

Date: 25 August 2019
Orbit: 592 x 911 km, 66.7° (Epoch: 19 September)

Event Time Altitude Azimuth Distance (km) Brightness Sun altitude
Rises 15:38:34 0° 230° (SW) 3,535 9.1 0.4°
Reaches altitude 10° 15:41:50 10° 247° (WSW) 2,584 8.8 -0.4°
Maximum altitude 15:45:58 19° 290° (WNW) 1,981 8.7 -1.4°
Drops below altitude 10° 15:50:01 10° 334° (NNW) 2,507 8.2 -2.4°
Sets 15:53:10 0° 352° (N) 3,394 8.6 -3.1°
